Location: Unspecified
(0.0000°N, 0.0000°E)
Time: 14:24:35
(UTC+00:00)

Vanguard 1 - All Passes

Search period start: 02 February 2023 00:00
Search period end: 12 February 2023 00:00
Orbit: 649 x 3831 km, 34.2° (Epoch: 01 February)

Date Brightness Start Highest point End Pass type
(mag) Time Alt. Az. Time Alt. Az. Time Alt. Az.
02 Feb - 01:42:43 10° WSW 01:47:01 54° NW 01:52:13 10° NE night (unlit)
02 Feb - 08:54:10 10° NNW 09:05:34 21° NNE 09:20:24 10° ENE daylight
02 Feb - 11:14:19 10° NW 11:34:02 56° NE 11:56:16 10° ESE daylight
02 Feb - 13:38:37 10° WNW 14:01:52 71° SW 14:21:28 10° SE daylight
02 Feb - 16:11:35 10° W 16:28:58 28° SW 16:41:38 10° SSE daylight
02 Feb - 23:43:41 10° SSW 23:47:38 23° SSE 23:51:11 10° E night (unlit)
03 Feb - 02:03:53 10° W 02:07:45 29° NNW 02:12:26 10° NNE night (unlit)
03 Feb - 09:14:14 10° NNW 09:27:34 27° NNE 09:45:11 10° E daylight
03 Feb - 11:34:53 10° NW 11:55:26 68° NE 12:18:04 10° ESE daylight
03 Feb - 14:00:22 10° WNW 14:23:09 58° SW 14:42:01 10° SE daylight
03 Feb - 16:36:18 10° WSW 16:50:45 22° SSW 17:01:35 10° SSE daylight
04 Feb - 00:03:40 10° SW 00:08:20 43° SE 00:12:34 10° ENE night (unlit)
04 Feb - 02:25:43 10° WNW 02:28:40 17° NNW 02:32:06 10° NNE night (unlit)
04 Feb - 07:19:40 10° NNE 07:21:00 10° NNE 07:22:22 10° NNE daylight
04 Feb - 09:34:22 10° NNW 09:49:16 35° NE 10:09:07 10° E daylight
04 Feb - 11:55:36 10° NW 12:16:45 82° NE 12:39:28 10° SE daylight
04 Feb - 14:22:37 10° WNW 14:44:32 47° SW 15:02:25 10° SSE daylight
04 Feb - 17:01:56 10° WSW 17:12:52 17° SSW 17:21:26 10° S daylight
04 Feb - 22:06:09 10° S 22:07:42 11° SSE 22:09:06 10° SE visible
05 Feb - 00:24:07 10° SW 00:28:57 87° SE 00:33:26 10° NE night (unlit)
05 Feb - 07:37:03 10° N 07:43:17 14° NNE 07:50:58 10° NE daylight
05 Feb - 09:54:33 10° NNW 10:10:42 44° NE 10:32:16 10° ESE daylight
05 Feb - 12:16:33 10° NW 12:38:03 84° SW 13:00:33 10° SE daylight
05 Feb - 14:45:29 10° W 15:06:06 38° SW 15:22:44 10° SSE daylight
05 Feb - 17:28:20 10° SW 17:35:17 13° SSW 17:41:06 10° S daylight
05 Feb - 22:24:46 10° SSW 22:28:56 18° SSE 22:32:16 10° ESE visible
06 Feb - 00:45:00 10° WSW 00:49:29 46° NW 00:53:52 10° NE night (unlit)
06 Feb - 07:56:22 10° N 08:05:16 19° NNE 08:17:09 10° ENE daylight
06 Feb - 10:14:50 10° NW 10:31:58 55° NE 10:54:46 10° ESE daylight
06 Feb - 12:37:47 10° WNW 12:59:24 71° SW 13:21:24 10° SE daylight
06 Feb - 15:09:03 10° W 15:27:55 30° SSW 15:43:00 10° SSE daylight
06 Feb - 17:55:34 10° SSW 17:57:56 10° SSW 18:00:08 10° S daylight
06 Feb - 22:44:34 10° SSW 22:49:58 29° SSE 22:54:00 10° E visible
07 Feb - 01:06:25 10° W 01:10:06 24° NW 01:13:50 10° NNE night (unlit)
07 Feb - 08:16:02 10° NNW 08:26:56 25° NE 08:42:16 10° E daylight
07 Feb - 10:35:16 10° NW 10:53:09 68° NE 11:16:43 10° ESE daylight
07 Feb - 12:59:23 10° WNW 13:20:51 58° SW 13:42:04 10° SE daylight
07 Feb - 15:33:27 10° WSW 15:50:03 24° SSW 16:03:18 10° SSE daylight
07 Feb - 20:45:27 10° S 20:48:09 12° SSE 20:50:29 10° SSE visible
07 Feb - 23:04:51 10° SW 23:10:47 52° SSE 23:15:09 10° ENE night (unlit)
08 Feb - 01:28:49 10° WNW 01:30:51 13° NNW 01:32:57 10° N night (unlit)
08 Feb - 08:35:54 10° NNW 08:48:17 33° NE 09:06:27 10° E daylight
08 Feb - 10:55:53 10° NW 11:14:20 82° NE 11:38:16 10° SE daylight
08 Feb - 13:21:27 10° WNW 13:42:28 47° SW 14:02:38 10° SE daylight
08 Feb - 15:58:37 10° WSW 16:12:32 19° SSW 16:23:41 10° SSE daylight
08 Feb - 21:04:30 10° SSW 21:09:43 17° SSE 21:13:39 10° ESE visible
08 Feb - 23:25:32 10° SW 23:31:25 84° NW 23:35:49 10° NE night (unlit)
09 Feb - 06:42:55 10° NNE 06:43:53 10° NNE 06:44:52 10° NE daylight
09 Feb - 08:55:54 10° NNW 09:09:26 42° NE 09:29:48 10° ESE daylight
09 Feb - 11:16:43 10° NW 11:35:36 83° SW 11:59:29 10° SE daylight
09 Feb - 13:44:04 10° W 14:04:18 38° SSW 14:23:08 10° SSE daylight
09 Feb - 16:24:14 10° SW 16:35:18 16° SSW 16:44:17 10° SSE daylight
09 Feb - 19:03:13 10° S 19:05:45 11° S 19:08:02 10° SSE visible
09 Feb - 21:24:22 10° SSW 21:31:04 25° SSE 21:35:39 10° E visible
09 Feb - 23:46:38 10° WSW 23:51:54 43° NW 23:56:06 10° NE night (unlit)
10 Feb - 06:59:19 10° N 07:05:34 15° NE 07:13:38 10° ENE daylight
10 Feb - 09:16:03 10° NW 09:30:26 54° NE 09:52:27 10° ESE daylight
10 Feb - 11:37:50 10° WNW 11:56:59 70° SW 12:20:27 10° SE daylight
10 Feb - 14:07:21 10° W 14:26:25 31° SSW 14:43:39 10° SSE daylight
10 Feb - 16:49:39 10° SW 16:58:16 14° SSW 17:05:23 10° SSE daylight
10 Feb - 19:22:40 10° SSW 19:27:57 13° S 19:32:08 10° SE visible
10 Feb - 21:44:37 10° SW 21:52:12 38° SSE 21:57:02 10° E visible
11 Feb - 00:08:17 10° W 00:12:24 23° NW 00:15:55 10° NNE night (unlit)
11 Feb - 07:18:24 10° N 07:26:55 21° NE 07:39:06 10° E daylight
11 Feb - 09:36:22 10° NW 09:51:25 67° NE 10:14:34 10° ESE daylight
11 Feb - 11:59:16 10° WNW 12:18:32 57° SW 12:41:16 10° SE daylight
11 Feb - 14:31:22 10° WSW 14:48:53 25° SSW 15:04:16 10° SSE daylight
11 Feb - 17:13:59 10° SSW 17:21:17 13° S 17:27:19 10° SSE daylight
11 Feb - 19:42:38 10° SSW 19:49:52 18° SSE 19:55:04 10° SE visible
11 Feb - 22:05:12 10° SW 22:13:04 63° SSE 22:17:58 10° ENE visible
